Location: Lecco
(45.8566°N, 9.3977°E)
Time: 01:30:25
(UTC+02:00)

ISS - Pass Details

Date: 14 July 2018
Orbit: 402 x 408 km, 51.6° (Epoch: 22 July)

Event Time Altitude Azimuth Distance (km) Brightness Sun altitude
Exits shadow 04:12:48 - 286° (WNW) 2,331 -0.2 -12.8°
Rises 04:12:48 0° 286° (WNW) 2,331 -0.2 -12.8°
Reaches altitude 10° 04:15:04 10° 299° (WNW) 1,471 -1.1 -12.6°
Maximum altitude 04:17:59 28° 1° (N) 796 -1.8 -12.3°
Drops below altitude 10° 04:20:55 10° 63° (ENE) 1,473 0.2 -11.9°
Sets 04:23:11 0° 76° (ENE) 2,335 1.0 -11.7°
